DELTA 1 DEB, 10837

Orbit data source: Space-Track

DELTA 1 DEB, 10837 is space debris in SSO originally from a launch on Thu, 29 Jul 1976 UTC launched from the Air Force Western Test Range (AFWTR). Debris objects in space refer to the collection of defunct objects orbiting the Earth. Examples of debris include non-operational satellites, rocket bodies, and fragments generated from explosions, collisions, or faulty payload assembly.

Loading next visibility...
Identifier
10837, 1976-077CH
Orbit
SSO
Country
Flag of USUS
Related business
Manufacturer
Unknown
Mission
Spacecraft
Bus & Motor
Unknown
Mass
Unknown
Launch date (UTC)
1976-07-29 (50 years ago)
Launch vehicle
Unknown
Launch site
Air Force Western Test Range (AFWTR)
Object type
Payload
Rocket body
Debris
Shape & HBR
Unknown shape, 0.1 m
Radar Cross Section
Small (<0.1 m²)

Expand to show TLE details & history
Last TLE update: 1 day ago

TLE from 1 day ago
0 DELTA 1 DEB
1 10837U 76077CH  26072.29896017 -.00000246  00000-0 -22493-2 0  9991
2 10837 102.3223   5.4843 0199999 345.1728 170.8526 12.04483342182072
Epoch: 2026-03-13T07:10Z
TLE epoch observation values (Epoch: 2026-03-13T07:10:30.158Z)
Latitude
23.06176°
Longitude
-87.76668°
Altitude
1,822.103 km
Speed
6.906 km/s
True Right ascension
12h 43m 10s
True Declination
22° 57' 15"
Sunlit
Object was in full shadow at epoch
Visualization orbit readout
Latitude
Unknown
Longitude
Unknown
Altitude
Unknown
Speed
Unknown
Apparent Right ascension
Unknown
Apparent Declination
Unknown
Sunlit
N/A
Visualization observer readout
Local Sidereal Time
18:42:20
Azimuth
Unknown
Elevation
Unknown
Doppler factor
Unknown
Orbital elements
Apogee altitude
1,819.22 km
Perigee altitude
1,497.757 km
Semi-major axis
8,036.626 km
Eccentricity
0.02
Inclination
102.3223°
RAAN
5.4843°
Arg. of periapsis
345.1728°
True anomaly
171.20816°
Mean anomaly
170.8526°
Eccentric anomaly
171.03124°
Mean motion
3.01254 °/min
Orbital period
119.5 mins
BSTAR
-0.0022493
Loading maneuver chart data...
Computing Atmospheric mass density...
Loading historical data...
Loading historical data...
Loading historical data...
Loading historical data...
Loading historical data...
Loading historical data...
Loading historical data...

Documentation

Showing up to 5 results
|